Tracking 31027 objects as of 19-Jul-2025
HD Live streaming from Space Station
objects crossing your sky now

IRIDIUM 33 DEB

Track IRIDIUM 33 DEB now!
10-day predictions


NORAD ID: 34508
Int'l Code: 1997-051GZ
Perigee: 729.9 km
Apogee: 820.7 km
Inclination: 86.4 °
Period: 100.2 minutes
Semi major axis: 7146 km
RCS: 0.051 m2 (small)
Launch date: September 14, 1997
Source: United States (US)
Launch site: TYURATAM MISSILE AND SPACE COMPLEX (TTMTR)

Note: This is SATELLITE DEBRIS
Your satellite tracking list
KL-BETA B
Track 1 satellite(s)




NASA's NSSDC Master Catalog

Two Line Element Set (TLE):
1 34508U 97051GZ  25199.39869365  .00002483  00000-0  81134-3 0  9994
2 34508  86.3758 164.9715 0063567 298.4468  61.0334 14.37085611851928
Source of the keplerian elements: AFSPC